User: anonymous   Login
Location: Newark
(25.0000°N, 73.5000°E)
Time: 12:26:22
(UTC+00:00)
Language:

Transit 4A - Orbit

View from above orbital plane
View from above orbital plane
View from above satellite
View from above satellite

Ground track
Ground track

The orbit data is extracted from the following two-line orbital elements,

1   116U 61015A   21066.05172237 -.00000055  00000-0  17027-4 0  9995
2   116  66.8087 286.2512 0076296 189.9173 170.0405 13.91784660 28843
Epoch (UTC): 07 March 2021 01:14:28
Eccentricity: 0.0076296
inclination: 66.8087°
perigee height: 866 km
apogee height: 978 km
right ascension of ascending node: 286.2512°
argument of perigee: 189.9173°
revolutions per day: 13.91784660
mean anomaly at epoch: 170.0405°
orbit number at epoch: 2884

The dashed part of the orbit path shows where the satellite is in the earth's shadow,  

DLR